Total_Precipitation_Accumulation
1.99 2.02 1.99 1.92 1.74 1.64 1.54 1.49 1.42 1.33 1.31 1.31 1.32 1.33 1.32 1.30 1.32 1.34 1.31 1.32 1.38 1.53 1.61 1.65 1.71 1.75 1.82 1.81 1.83 1.89 2.02 2.14 2.23 2.14 1.95 1.88 1.88 1.80 1.70 1.51 1.41 1.40 1.39
1.52 1.54 1.54 1.47 1.37 1.32 1.25 1.21 1.21 1.19 1.18 1.20 1.20 1.20 1.24 1.31 1.34 1.29 1.20 1.20 1.28 1.41 1.50 1.58 1.57 1.55 1.61 1.68 1.73 1.72 1.77 1.89 2.01 2.07 1.94 1.78 1.77 1.75 1.69 1.61 1.36 1.22 1.22
1.23 1.25 1.25 1.31 1.27 1.23 1.25 1.25 1.23 1.19 1.18 1.15 1.10 1.13 1.20 1.25 1.26 1.23 1.18 1.16 1.18 1.25 1.31 1.33 1.34 1.37 1.34 1.38 1.44 1.50 1.52 1.54 1.70 1.76 1.74 1.68 1.63 1.56 1.61 1.58 1.43 1.46 1.21
1.18 1.15 1.08 1.07 1.12 1.15 1.15 1.16 1.12 1.09 1.13 1.17 1.12 1.08 1.08 1.02 0.96 0.93 0.94 0.99 0.99 1.01 1.04 1.06 1.12 1.21 1.24 1.27 1.26 1.30 1.33 1.45 1.54 1.61 1.57 1.56 1.57 1.46 1.48 1.53 1.48 1.41 1.27
1.31 1.26 1.16 1.06 1.07 1.13 1.11 1.06 1.02 0.99 0.93 0.95 0.96 0.92 0.86 0.74 0.65 0.65 0.70 0.74 0.80 0.82 0.84 0.82 0.82 0.97 1.08 1.05 0.97 1.08 1.22 1.38 1.45 1.48 1.42 1.35 1.32 1.39 1.38 1.33 1.33 1.35 1.29
1.44 1.48 1.48 1.37 1.31 1.31 1.21 1.08 1.07 1.05 0.96 0.87 0.81 0.80 0.74 0.58 0.58 0.55 0.61 0.74 0.82 0.81 0.83 0.83 0.75 0.78 0.81 0.80 0.79 0.92 1.11 1.16 1.26 1.38 1.38 1.35 1.32 1.34 1.32 1.31 1.38 1.43 1.44
1.50 1.51 1.49 1.47 1.45 1.41 1.24 1.11 1.11 1.08 1.05 1.01 0.90 0.84 0.82 0.75 0.61 0.51 0.55 0.70 0.82 0.83 0.83 0.81 0.70 0.64 0.71 0.73 0.74 0.78 0.86 0.87 0.98 1.21 1.36 1.31 1.32 1.38 1.44 1.39 1.47 1.51 1.45
1.53 1.50 1.46 1.35 1.34 1.28 1.19 1.18 1.14 1.08 1.05 1.00 0.93 0.86 0.78 0.62 0.47 0.41 0.43 0.58 0.76 0.80 0.79 0.79 0.80 0.74 0.69 0.70 0.69 0.74 0.83 0.88 0.89 0.94 1.17 1.21 1.18 1.29 1.40 1.46 1.53 1.51 1.46
1.55 1.41 1.31 1.23 1.22 1.15 1.13 1.08 1.02 0.96 0.94 0.88 0.79 0.76 0.74 0.60 0.39 0.33 0.39 0.57 0.73 0.74 0.69 0.63 0.67 0.70 0.68 0.65 0.71 0.85 0.92 0.97 0.81 0.81 0.92 1.02 1.05 1.13 1.21 1.30 1.50 1.64 1.57
1.31 1.10 1.01 1.02 1.02 0.99 0.94 0.90 0.87 0.85 0.85 0.78 0.68 0.70 0.71 0.68 0.50 0.40 0.43 0.55 0.69 0.69 0.68 0.64 0.58 0.57 0.57 0.59 0.70 0.84 0.93 0.94 0.86 0.86 1.03 1.12 1.10 1.19 1.21 1.31 1.54 1.62 1.54
1.15 1.03 0.95 0.91 0.85 0.82 0.82 0.83 0.80 0.76 0.80 0.79 0.78 0.74 0.68 0.59 0.46 0.38 0.39 0.45 0.58 0.64 0.65 0.68 0.61 0.50 0.47 0.50 0.63 0.71 0.78 0.78 0.89 1.06 1.15 1.18 1.20 1.28 1.27 1.27 1.42 1.50 1.56
1.05 1.00 0.95 0.84 0.72 0.71 0.84 0.83 0.80 0.82 0.84 0.82 0.79 0.73 0.61 0.51 0.40 0.33 0.33 0.38 0.46 0.60 0.69 0.70 0.61 0.50 0.46 0.49 0.57 0.63 0.66 0.76 0.96 1.14 1.23 1.23 1.16 1.15 1.19 1.19 1.30 1.39 1.43
1.03 1.01 0.90 0.76 0.78 0.77 0.83 0.83 0.77 0.76 0.71 0.65 0.63 0.63 0.57 0.50 0.42 0.33 0.35 0.40 0.46 0.53 0.61 0.57 0.53 0.51 0.50 0.60 0.63 0.64 0.75 0.97 1.11 1.17 1.25 1.25 1.15 1.09 1.09 1.06 1.15 1.31 1.30
1.13 1.07 0.93 0.81 0.75 0.73 0.72 0.66 0.62 0.62 0.61 0.57 0.55 0.54 0.51 0.50 0.46 0.43 0.44 0.43 0.44 0.50 0.54 0.54 0.59 0.63 0.65 0.74 0.83 0.93 0.97 1.03 1.04 1.12 1.18 1.13 1.02 0.99 1.07 1.07 1.14 1.23 1.28
1.10 0.98 0.86 0.72 0.65 0.63 0.57 0.50 0.45 0.44 0.41 0.42 0.41 0.40 0.44 0.46 0.40 0.39 0.40 0.40 0.41 0.41 0.44 0.61 0.81 0.87 0.94 1.00 1.03 1.07 1.12 1.07 1.01 1.02 1.05 1.05 1.01 1.00 1.01 0.99 1.06 1.14 1.23
1.02 0.83 0.69 0.59 0.52 0.44 0.40 0.39 0.32 0.27 0.24 0.23 0.23 0.24 0.26 0.27 0.25 0.26 0.29 0.33 0.35 0.38 0.44 0.70 0.82 0.87 0.95 0.98 0.98 1.01 1.07 1.10 1.04 1.00 0.99 0.98 0.97 0.96 0.99 0.95 0.98 1.11 1.19
0.83 0.66 0.52 0.46 0.45 0.42 0.38 0.44 0.44 0.30 0.20 0.17 0.20 0.21 0.22 0.21 0.20 0.23 0.28 0.32 0.38 0.48 0.60 0.77 0.80 0.85 0.91 0.87 0.87 0.91 0.94 0.96 0.91 0.89 0.87 0.86 0.85 0.86 0.92 0.94 0.91 0.92 0.93
0.53 0.43 0.37 0.39 0.37 0.33 0.30 0.33 0.36 0.40 0.40 0.33 0.28 0.25 0.22 0.23 0.24 0.27 0.34 0.39 0.52 0.62 0.69 0.73 0.75 0.76 0.81 0.82 0.81 0.82 0.80 0.75 0.72 0.74 0.80 0.80 0.80 0.80 0.81 0.82 0.79 0.76 0.82
0.35 0.34 0.31 0.30 0.28 0.25 0.23 0.25 0.26 0.31 0.40 0.43 0.37 0.30 0.28 0.33 0.35 0.39 0.45 0.51 0.62 0.65 0.64 0.65 0.68 0.69 0.70 0.77 0.77 0.71 0.66 0.63 0.61 0.62 0.65 0.70 0.73 0.71 0.71 0.69 0.65 0.60 0.68
0.29 0.26 0.27 0.25 0.25 0.24 0.23 0.23 0.26 0.28 0.33 0.39 0.39 0.35 0.36 0.45 0.55 0.57 0.56 0.55 0.54 0.55 0.56 0.57 0.55 0.53 0.56 0.61 0.60 0.56 0.54 0.55 0.54 0.54 0.56 0.57 0.56 0.59 0.61 0.59 0.56 0.57 0.63
0.23 0.21 0.22 0.22 0.24 0.23 0.23 0.24 0.25 0.27 0.32 0.37 0.36 0.34 0.38 0.44 0.53 0.55 0.56 0.53 0.49 0.51 0.53 0.50 0.46 0.43 0.44 0.48 0.50 0.49 0.48 0.49 0.51 0.53 0.51 0.49 0.47 0.49 0.48 0.48 0.50 0.50 0.51
0.24 0.24 0.22 0.23 0.23 0.22 0.23 0.26 0.28 0.29 0.31 0.36 0.38 0.34 0.36 0.41 0.48 0.53 0.55 0.52 0.47 0.45 0.45 0.46 0.42 0.40 0.40 0.42 0.43 0.42 0.40 0.42 0.47 0.50 0.48 0.45 0.44 0.44 0.43 0.43 0.46 0.47 0.46
0.25 0.23 0.22 0.22 0.20 0.20 0.21 0.23 0.24 0.27 0.28 0.34 0.36 0.35 0.37 0.42 0.48 0.52 0.52 0.45 0.37 0.35 0.37 0.41 0.42 0.39 0.38 0.36 0.35 0.35 0.33 0.33 0.37 0.41 0.42 0.40 0.41 0.39 0.38 0.39 0.39 0.44 0.46
0.20 0.21 0.21 0.22 0.21 0.20 0.22 0.22 0.24 0.26 0.27 0.31 0.36 0.34 0.34 0.41 0.43 0.44 0.43 0.36 0.30 0.29 0.30 0.33 0.37 0.36 0.33 0.32 0.31 0.29 0.29 0.29 0.29 0.28 0.30 0.34 0.38 0.35 0.33 0.33 0.35 0.39 0.43
0.17 0.19 0.22 0.22 0.22 0.20 0.18 0.18 0.20 0.22 0.26 0.31 0.35 0.32 0.29 0.31 0.35 0.38 0.36 0.35 0.32 0.30 0.29 0.29 0.30 0.30 0.29 0.28 0.27 0.24 0.25 0.26 0.26 0.24 0.23 0.26 0.31 0.32 0.33 0.37 0.38 0.40 0.42
0.14 0.18 0.20 0.20 0.22 0.20 0.17 0.18 0.19 0.22 0.24 0.25 0.27 0.27 0.26 0.27 0.31 0.33 0.31 0.30 0.28 0.27 0.26 0.26 0.26 0.27 0.29 0.31 0.30 0.28 0.26 0.24 0.23 0.25 0.24 0.27 0.31 0.34 0.37 0.40 0.39 0.42 0.45